DW7933 Weather Reports


time (UTC)temp
F
wind
direction
speed
knots
gust
knots
rain 1hr
in
rain 24hr
in
rain mn
in
humidity
%
barometer
mb
20211017144533 61 158 3.5 9.6 0.00 0.00 0.00 72 1022.7
20211017143029 60 70 2.6 9.6 0.00 0.00 0.00 74 1022.6
20211017141503 58 53 4.3 8.7 0.00 0.00 0.00 76 1022.4
20211017140103 58 18 3.5 9.6 0.00 0.00 0.00 77 1022.4
20211017134558 57 351 3.5 11.3 0.00 0.00 0.00 79 1022.3
20211017133034 56 333 4.3 6.1 0.00 0.00 0.00 79 1022.2
20211017131512 55 5 1.7 7.0 0.00 0.00 0.00 80 1022.0
20211017130104 53 1 0.0 4.3 0.00 0.00 0.00 78 1021.8
20211017124627 52 66 1.7 6.1 0.00 0.00 0.00 76 1021.6
20211017123023 51 18 0.0 3.5 0.00 0.00 0.00 74 1021.4
20211017121519 50 26 0.9 2.6 0.00 0.00 0.00 72 1021.2
20211017114642 50 32 0.9 2.6 0.00 0.00 0.00 74 1021.0
20211017113127 50 54 0.9 2.6 0.00 0.00 0.00 74 1020.9
20211017111545 50 338 0.9 4.3 0.00 0.00 0.00 72 1020.6
20211017110126 50 22 1.7 4.3 0.00 0.00 0.00 72 1020.5
20211017104728 50 1 1.7 3.5 0.00 0.00 0.00 71 1020.4
20211017103220 49 22 1.7 6.1 0.00 0.00 0.00 68 1020.2
20211017101538 49 337 1.7 6.1 0.00 0.00 0.00 66 1020.1
20211017100053 49 335 1.7 4.3 0.00 0.00 0.00 64 1019.9
20211017094509 49 22 1.7 4.3 0.00 0.00 0.00 63 1019.9
20211017093009 49 328 2.6 5.2 0.00 0.00 0.00 61 1019.9
20211017091648 49 321 1.7 5.2 0.00 0.00 0.00 59 1019.9
20211017090058 49 350 1.7 4.3 0.00 0.00 0.00 55 1019.9
20211017084529 48 350 1.7 5.2 0.00 0.00 0.00 36 1020.0
20211017083040 46 329 0.9 1.7 0.00 0.00 0.00 11 1020.1
20211017081632 46 347 0.0 0.0 0.00 0.00 0.00 11 1020.1
20211017080132 45 347 0.0 0.0 0.00 0.00 0.00 11 1020.1
20211017074540 45 347 0.0 0.9 0.00 0.00 0.00 11 1020.0
20211017073030 45 347 0.0 0.0 0.00 0.00 0.00 11 1020.0
20211017071505 45 347 0.0 0.0 0.00 0.00 0.00 11 1020.1
20211017070124 45 347 0.0 0.0 0.00 0.00 0.00 11 1020.1
20211017064643 46 347 0.0 0.0 0.00 0.00 0.00 11 1020.2
20211017063035 46 347 0.0 0.0 0.00 0.00 0.00 11 1020.2
20211017061523 47 347 0.0 0.0 0.00 0.00 0.00 11 1020.1
20211017060025 47 347 0.0 0.0 0.00 0.00 0.00 11 1019.9
20211017054606 48 347 0.0 0.0 0.00 0.00 0.00 17 1020.0
20211017053103 49 347 0.0 0.0 0.00 0.00 0.00 21 1019.9
20211017051552 50 347 0.0 0.0 0.00 0.00 0.00 38 1020.0
20211017050044 51 347 0.0 0.0 0.00 0.00 0.00 59 1020.0
20211017044640 52 347 0.0 0.0 0.00 0.00 0.00 75 1020.0
20211017043147 54 347 0.0 0.0 0.00 0.00 0.00 81 1020.0
20211017041541 55 342 0.9 2.6 0.00 0.00 0.00 80 1019.8
20211017040048 56 337 0.0 3.5 0.00 0.00 0.00 79 1020.0
20211017034521 56 339 1.7 4.3 0.00 0.00 0.00 78 1019.9
20211017033015 57 336 1.7 4.3 0.00 0.00 0.00 77 1019.8
20211017031635 58 332 1.7 6.1 0.00 0.00 0.00 76 1019.7
20211017030133 58 343 2.6 7.0 0.00 0.00 0.00 77 1019.6
20211017024535 58 357 2.6 5.2 0.00 0.00 0.00 77 1019.5
20211017023049 58 329 2.6 6.1 0.00 0.00 0.00 77 1019.4
20211017021510 58 350 2.6 4.3 0.00 0.00 0.00 78 1019.2
20211017014624 60 341 2.6 7.0 0.00 0.00 0.00 77 1018.8
20211017013142 61 319 2.6 7.0 0.00 0.00 0.00 77 1018.9
20211017011549 61 347 2.6 10.4 0.00 0.00 0.00 78 1018.6
20211017010127 61 327 2.6 7.0 0.00 0.00 0.00 79 1018.3
20211017004540 61 1 1.7 6.1 0.00 0.00 0.00 80 1018.1
20211017003017 62 333 1.7 5.2 0.00 0.00 0.00 80 1017.8
20211017001551 62 307 3.5 8.7 0.00 0.00 0.00 80 1017.7
20211017000024 63 334 3.5 6.1 0.00 0.00 0.00 79 1017.6
20211016234513 65 329 5.2 11.3 0.00 0.00 0.00 76 1017.3
20211016233013 65 342 4.3 9.6 0.00 0.00 0.00 77 1016.9
20211016231603 66 335 4.3 8.7 0.00 0.00 0.00 76 1016.7
20211016230107 68 343 4.3 9.6 0.00 0.00 0.00 73 1016.5
20211016224523 69 315 5.2 13.0 0.00 0.00 0.00 71 1016.3
20211016223041 70 344 6.1 10.4 0.00 0.00 0.00 68 1016.1
20211016221659 71 355 5.2 10.4 0.00 0.00 0.00 68 1016.0
20211016220138 72 330 6.1 13.9 0.00 0.00 0.00 66 1015.6
20211016214643 73 330 7.0 12.2 0.00 0.00 0.00 67 1015.5
20211016213116 74 335 7.0 13.0 0.00 0.00 0.00 66 1015.4
20211016211526 74 1 7.0 12.2 0.00 0.00 0.00 67 1015.3
20211016210104 74 342 6.1 14.8 0.00 0.00 0.00 68 1015.3
20211016204610 74 347 5.2 14.8 0.00 0.00 0.00 70 1015.2
20211016203135 74 332 8.7 15.6 0.00 0.00 0.00 68 1015.2
20211016201622 75 13 5.2 11.3 0.00 0.00 0.00 67 1015.2
20211016200105 74 319 7.0 13.9 0.00 0.00 0.00 69 1015.1
20211016194531 74 330 9.6 16.5 0.00 0.00 0.00 71 1015.2
20211016193106 74 323 10.4 18.2 0.00 0.00 0.00 72 1015.0
20211016191511 73 330 8.7 13.9 0.00 0.00 0.00 78 1014.9
20211016190209 72 328 11.3 15.6 0.00 0.00 0.00 77 1015.0
20211016190002 72 323 11.3 15.6 0.00 0.00 0.00 78 1015.0
20211016184614 72 314 7.8 14.8 0.00 0.00 0.00 77 1015.2
20211016183048 70 311 7.0 12.2 0.00 0.00 0.00 62 1015.4
20211016181544 68 312 7.0 12.2 0.00 0.00 0.00 14 1015.6
20211016180109 67 339 6.1 12.2 0.00 0.00 0.00 11 1015.9
20211016174503 68 345 6.1 19.1 0.00 0.00 0.00 11 1015.9
20211016171548 69 321 7.0 13.0 0.00 0.00 0.00 11 1016.0
20211016170059 72 308 7.8 12.2 0.00 0.00 0.00 11 1015.8
20211016164552 72 321 7.0 12.2 0.00 0.00 0.00 11 1015.8
20211016163042 74 330 8.7 13.9 0.00 0.00 0.00 18 1015.6
20211016160204 75 342 5.2 13.0 0.00 0.00 0.00 38 1015.6
20211016154725 76 326 4.3 13.0 0.00 0.00 0.00 40 1015.5
20211016153110 76 343 6.1 12.2 0.00 0.00 0.00 49 1015.3
20211016151608 77 340 5.2 11.3 0.00 0.00 0.00 46 1015.3
20211016150102 77 319 6.1 11.3 0.00 0.00 0.00 36 1015.2